Nunarsuit

KL  EN  DA
ASIAQ
Weather Now GREENLAND SURVEY
Updated [WGT/WGST] Temperature [°C] Wind [m/s] Air pressure [hPa] Relative humidity [%] Precipitation [mm]
Present Wind chill Speed Max
20.04 16:000,3-2,22,1 ⇘2,699888n/a
20.04 15:000,4-1,31,5 ⇙2,199888n/a
20.04 14:00-0,3-3,52,6 ⇙3,699889n/a
20.04 13:00-0,4-4,84,1 ⇐4,699893n/a
20.04 12:00n/an/a5,7 ⇐7,7n/an/an/a
20.04 11:00-0,5-5,95,7 ⇐7,799994n/a
20.04 10:00-1,0-6,25,1 ⇖6,799994n/a
20.04 09:00-1,3-5,23,1 ⇐4,6100094n/a
20.04 08:00-1,4-6,75,1 ⇐7,2100095n/a
20.04 07:00-1,6-8,58,2 ⇐9,8100095n/a
20.04 06:00-1,5-7,97,2 ⇐8,8100094n/a
20.04 05:00-0,9-7,27,2 ⇐10,3100194n/a
20.04 04:00-1,0-6,86,2 ⇐9,3100194n/a
20.04 03:00-0,9-6,96,7 ⇐7,7100186n/a
20.04 02:00-0,8-6,05,1 ⇐6,2100187n/a
20.04 01:00-1,0-5,64,1 ⇐5,1100188n/a
20.04 00:00-1,0-4,32,6 ⇑3,1100287n/a
19.04 23:00-0,9-4,73,1 ⇗4,1100285n/a
19.04 22:00-1,0-4,32,6 ⇗3,1100281n/a
19.04 21:00-1,1-5,33,6 ⇒4,6100276n/a
19.04 20:00-0,9-6,45,7 ⇒7,7100275n/a
19.04 19:00-0,6-7,48,8 ⇒11,3100272n/a
19.04 18:00-0,5-7,59,3 ⇒11,8100171n/a
19.04 17:00-0,7-8,210,8 ⇘13,4100170n/a
19.04 16:00-0,7-8,511,8 ⇘15,4100171n/a
Position: (60.76361111,-48.454444444)

[Back]